RH
57 46 45 38 39 36 37 35 34 37 38 38 38 40 40 45 49 50 60 70 69 70 66 68 71 70 67 68 68 68 68 68 67 67 68 67 69 68 70 69 68 67 68
56 43 43 37 37 32 33 33 37 37 38 41 46 46 46 46 47 54 53 64 73 71 71 71 70 68 70 70 70 70 70 69 69 67 68 66 67 66 67 67 69 68 68
57 52 44 39 32 34 40 38 40 37 39 41 46 46 45 47 45 48 49 54 63 76 74 73 74 71 72 72 69 72 72 72 72 70 69 69 68 70 69 69 68 68 68
55 56 42 39 36 36 34 35 36 39 42 43 45 42 42 43 46 44 40 44 46 53 70 74 74 74 74 73 72 72 73 72 72 72 70 69 69 69 68 68 69 70 69
55 53 42 42 49 38 40 38 39 43 42 41 39 40 42 45 44 36 44 45 47 45 50 69 71 73 74 74 75 75 74 72 72 72 72 71 70 70 69 71 71 68 69
59 55 42 48 48 41 39 37 44 42 43 40 32 39 40 41 38 45 46 40 45 46 43 52 57 59 70 72 74 75 75 76 74 74 73 72 72 72 72 72 73 73 71
65 59 43 51 52 43 43 48 44 52 45 43 45 51 50 48 45 42 41 43 46 44 50 45 40 46 57 65 72 72 74 76 75 75 73 72 72 71 72 71 71 71 72
71 65 52 52 57 43 52 52 53 50 44 48 46 46 50 48 44 42 40 43 49 44 46 46 48 47 44 48 62 72 73 74 75 74 72 73 72 73 73 75 73 74 75
72 71 67 58 62 50 52 57 56 55 51 52 49 54 54 44 50 44 47 44 51 45 45 47 48 47 50 50 55 62 69 71 74 73 72 71 70 71 75 76 76 76 76
75 72 70 69 71 62 58 58 53 54 53 56 52 48 57 42 44 52 45 47 48 53 52 45 49 48 49 49 65 68 68 69 69 70 70 71 74 75 75 74 74 74 77
80 76 75 75 75 68 64 62 64 60 55 55 52 55 50 57 49 41 52 54 50 49 49 48 46 49 50 47 52 64 67 68 67 68 68 70 67 70 73 74 74 75 76
86 82 76 75 74 70 67 69 67 68 65 57 50 51 51 56 51 45 44 53 55 54 52 50 50 49 48 51 61 65 66 66 66 66 65 67 66 67 69 71 73 78 80
89 86 82 80 80 72 72 68 77 71 68 69 63 56 54 50 47 33 44 50 52 61 64 52 48 48 46 52 56 62 66 65 67 64 68 67 64 65 66 66 68 76 80
86 83 83 80 77 76 74 73 71 72 78 73 74 69 69 64 54 43 49 51 60 62 63 66 50 49 51 51 56 61 59 65 66 66 69 67 64 64 65 66 67 68 70
84 84 83 82 78 78 75 76 78 76 73 79 81 79 73 69 66 57 56 47 52 60 59 64 57 50 49 54 60 48 56 66 66 67 67 65 64 64 65 66 66 66 66
85 89 88 84 80 79 78 74 76 75 74 72 72 66 69 67 63 60 58 50 46 49 52 55 53 52 47 43 54 51 60 66 66 66 66 65 62 64 65 65 65 66 66
91 89 89 87 86 83 77 77 76 77 79 73 70 73 68 70 74 70 69 56 52 46 58 65 54 52 54 49 52 46 52 58 66 65 64 66 65 64 64 64 65 65 65
93 90 89 88 87 87 85 83 83 82 79 80 80 77 71 62 73 71 63 60 57 58 69 77 68 60 60 58 62 52 30 30 46 61 62 62 64 66 64 64 64 64 64
93 91 90 90 91 92 96 96 94 92 88 86 85 82 76 76 75 71 73 77 71 57 70 74 77 65 60 60 68 66 57 45 27 58 61 59 60 61 64 64 63 63 63
94 93 90 90 90 91 91 93 95 98 89 78 77 80 80 80 82 76 78 81 75 74 71 75 75 71 63 64 64 68 66 50 41 24 34 46 49 59 64 60 62 63 64
92 89 91 90 90 92 90 90 85 84 81 80 78 77 75 74 78 82 78 80 74 73 75 74 74 76 79 80 76 68 61 65 57 52 39 35 39 39 47 54 59 62 62
94 94 93 94 95 90 94 87 81 78 74 71 75 67 68 82 82 87 84 79 71 73 70 63 69 76 92 88 82 74 69 72 67 70 81 53 40 44 45 52 64 62 63
99 99 100 99 100 99 90 84 75 72 76 79 66 67 74 71 77 75 78 75 70 66 68 54 62 74 81 76 70 60 57 54 57 58 62 66 48 57 45 47 61 63 63
100 100 100 100 100 100 94 80 81 98 97 100 96 90 79 86 77 66 65 61 66 83 92 93 88 90 74 69 56 49 47 44 51 62 62 64 71 76 56 60 60 62 63
100 100 100 100 100 100 96 92 88 97 100 100 100 100 100 100 74 63 86 92 91 93 83 77 75 72 71 69 70 50 63 53 68 87 88 90 88 84 84 84 68 63 64
100 100 100 100 100 100 93 88 82 83 86 91 96 100 88 86 78 81 92 91 91 89 87 84 83 81 82 83 86 98 68 67 86 89 92 89 85 85 94 90 80 73 73
Wind_Speed
10 11 10 10 10 11 10 9 7 8 7 7 7 8 7 10 11 8 7 12 12 13 13 13 14 15 15 16 16 16 16 15 15 15 15 16 16 17 17 17 18 18 18
10 11 10 11 10 10 10 9 9 9 8 8 8 8 8 9 11 11 9 10 15 14 13 13 14 15 16 16 16 16 15 15 15 15 16 16 16 16 17 17 18 19 19
12 11 10 10 10 10 11 9 10 9 9 9 10 9 8 8 9 11 11 10 11 15 15 14 16 16 16 16 16 15 15 16 16 16 16 16 17 17 17 18 18 18 19
13 11 10 10 10 9 10 10 10 10 10 9 9 9 8 8 9 8 8 9 8 9 12 15 15 16 15 15 15 15 16 15 16 16 16 16 17 17 18 18 19 19 20
13 11 10 10 11 10 9 10 10 10 10 10 10 8 8 8 8 7 8 7 8 9 8 12 14 14 14 15 15 15 15 16 16 16 17 17 17 18 18 19 19 19 20
15 14 11 11 11 10 10 11 12 10 10 10 10 9 7 6 6 7 9 8 7 7 8 12 10 9 13 13 14 15 15 15 16 16 16 17 17 18 18 19 20 21 23
15 16 11 12 12 11 12 12 11 12 11 11 11 8 5 5 7 7 7 8 9 8 7 6 4 8 9 13 15 15 15 15 16 16 17 17 18 18 19 19 21 21 22
17 15 14 15 15 12 14 14 14 12 10 12 10 10 8 5 6 6 7 7 8 8 7 6 7 5 5 7 10 16 16 15 16 17 17 18 19 19 21 22 22 23 24
18 16 14 13 16 13 12 15 15 16 13 13 13 5 6 6 10 7 8 8 9 6 5 7 6 7 7 5 8 12 14 15 16 16 16 17 18 21 22 23 23 22 23
17 17 15 13 14 10 13 14 13 13 12 14 9 4 3 7 7 8 9 8 8 8 5 5 6 6 8 7 13 12 13 14 15 16 17 19 21 23 22 22 22 22 23
18 18 16 14 14 10 11 14 14 13 10 12 10 8 7 4 6 7 11 11 8 8 6 4 5 6 6 6 8 10 13 13 14 17 18 20 21 21 22 22 23 23 24
13 18 18 15 13 11 12 11 11 12 10 10 8 8 6 6 4 7 9 12 11 7 6 5 5 6 6 9 10 12 13 13 14 16 18 19 21 22 22 22 24 24 26
13 17 19 16 14 12 11 12 11 11 10 6 10 8 2 3 1 7 9 10 11 7 3 3 5 5 6 6 6 11 14 13 13 15 17 17 19 19 20 22 24 26 27
15 18 18 18 17 15 13 12 9 8 8 6 5 3 4 5 6 6 6 11 12 7 7 8 5 6 6 6 7 9 10 11 13 14 16 17 17 19 20 21 24 25 25
13 18 20 19 19 18 17 14 11 9 9 6 8 7 5 2 4 5 3 8 9 10 10 8 6 8 7 7 4 8 10 11 13 13 15 15 17 18 21 22 23 23 25
15 16 16 17 17 15 18 16 12 12 11 9 9 12 7 5 6 4 4 6 6 7 7 11 7 10 10 8 5 9 10 12 13 12 12 14 15 18 21 21 21 23 24
15 17 17 16 16 15 15 15 13 11 12 9 6 10 9 5 3 3 2 5 5 5 10 9 8 9 11 10 8 7 10 10 8 10 10 12 15 17 20 21 22 22 23
15 17 17 18 18 16 14 17 15 12 15 15 11 12 9 6 6 5 5 8 7 5 12 14 10 9 9 9 7 6 4 6 9 8 8 10 13 16 17 20 21 21 22
17 18 19 20 20 19 14 16 13 13 13 13 11 10 8 6 6 7 9 8 6 8 10 10 9 8 8 8 8 5 6 5 7 12 9 8 8 12 16 18 19 20 21
17 18 18 19 19 19 17 15 16 16 13 12 11 10 9 9 9 9 7 9 7 9 10 8 8 8 8 9 8 8 6 5 5 6 4 5 5 9 15 14 18 18 19
17 19 19 18 18 17 13 16 15 15 15 13 13 11 10 9 10 7 6 8 9 8 9 9 8 8 7 7 7 4 6 7 4 2 2 4 3 3 7 11 13 16 18
12 13 14 17 17 12 24 22 17 13 14 14 12 13 9 10 8 9 12 10 5 10 9 9 8 8 8 7 5 6 6 6 6 3 2 5 2 4 5 6 12 14 16
11 12 13 14 13 12 23 24 20 11 11 12 13 12 11 8 9 8 13 13 13 13 8 6 10 9 10 9 8 8 6 5 5 6 4 5 3 4 3 6 7 11 14
11 11 11 11 12 12 21 16 16 11 10 7 9 12 11 13 12 12 11 9 8 9 8 7 11 6 8 7 8 3 7 6 8 6 3 1 2 3 4 5 4 6 9
12 10 9 13 13 13 23 23 17 10 9 10 8 8 8 8 15 16 12 12 11 9 13 18 18 14 10 7 6 3 5 7 6 3 2 2 3 0 2 1 3 2 3
10 10 11 9 15 12 22 21 16 10 12 9 9 8 10 10 16 17 11 11 11 10 10 11 10 10 9 8 8 5 4 5 5 4 3 3 3 1 4 4 2 2 4
Wind_Direction
177 190 178 183 184 183 171 180 153 166 157 148 150 149 134 108 129 118 97 75 71 79 81 82 86 82 73 67 60 53 48 44 42 37 33 29 23 18 13 6 0 355 348
176 195 183 188 186 178 177 174 166 159 164 150 141 132 132 130 121 124 123 92 78 79 78 79 75 75 70 65 61 51 43 40 36 33 29 23 19 14 8 2 357 352 345
178 196 190 190 188 182 172 166 161 170 154 159 143 137 129 130 129 129 139 127 108 77 76 71 67 63 62 61 57 50 44 39 34 30 26 22 17 14 8 2 356 352 347
189 195 189 194 181 175 175 164 173 169 158 153 149 150 141 134 136 144 141 134 129 119 84 74 71 59 52 50 49 46 40 35 32 28 24 21 17 13 8 2 356 352 348
194 195 193 187 166 174 178 169 171 177 159 158 151 137 145 142 156 143 137 125 111 124 118 103 94 77 59 52 43 41 36 34 29 26 21 17 15 13 7 3 357 352 347
188 192 197 180 174 179 177 176 174 175 165 156 148 138 142 146 141 142 141 143 130 126 133 144 159 104 85 62 50 44 36 34 32 27 23 18 18 12 6 2 0 356 350
192 189 193 177 187 185 181 177 171 168 164 154 135 125 105 130 158 155 157 145 146 130 123 129 125 143 121 87 56 48 39 34 31 28 25 20 19 14 10 4 1 356 353
190 196 197 178 190 184 178 176 178 167 162 163 158 145 155 161 171 185 171 157 155 150 132 108 106 99 89 86 76 48 40 34 31 28 25 21 20 16 13 8 4 360 356
191 193 208 190 185 186 178 177 182 177 169 176 171 166 148 184 152 178 180 171 162 136 134 127 113 110 101 91 71 65 42 36 32 30 27 25 22 21 16 11 7 2 356
189 192 195 190 187 193 177 179 183 185 172 180 196 221 115 99 185 166 188 168 167 134 165 143 131 106 111 110 95 60 47 40 36 33 31 29 27 24 16 12 6 3 2
186 187 184 182 184 190 183 175 180 186 182 180 190 163 172 108 221 153 166 174 163 144 152 148 133 119 110 87 93 70 54 45 40 35 32 31 29 24 18 13 9 7 6
191 185 185 180 180 179 168 173 171 185 174 194 188 179 161 143 158 175 158 170 160 173 134 155 156 141 127 107 93 79 63 56 46 39 36 34 31 24 18 14 12 11 10
199 192 179 184 177 172 165 159 165 174 186 175 176 173 139 171 249 218 148 162 156 140 169 191 151 143 129 110 107 100 71 60 56 45 43 38 34 26 20 15 15 17 12
193 187 182 176 172 161 152 152 166 151 142 146 126 113 95 80 284 227 156 166 152 153 165 159 168 157 148 123 118 146 90 71 66 54 44 36 35 28 24 20 22 17 13
190 188 179 172 164 157 152 149 143 147 148 151 138 136 129 103 246 254 155 172 170 155 178 177 160 161 145 164 116 114 98 84 65 59 52 40 37 31 30 26 24 19 17
185 175 170 165 163 161 148 153 153 159 152 161 154 152 128 182 219 214 175 179 209 165 142 150 156 164 144 134 144 122 123 99 77 65 58 46 47 39 37 32 27 21 20
167 165 164 155 150 158 143 136 140 137 125 128 138 115 134 180 197 219 148 158 191 194 130 118 132 147 151 143 157 141 163 131 96 78 69 55 51 47 41 36 31 26 19
152 153 149 146 139 140 132 130 140 137 136 135 150 129 159 197 189 190 187 165 158 171 130 149 162 159 159 144 132 137 152 108 115 111 96 66 56 53 47 42 34 27 26
149 151 152 150 149 146 148 139 144 137 129 131 150 144 160 187 183 192 197 131 152 119 134 144 153 158 146 147 149 160 170 141 134 153 155 126 77 60 49 45 40 31 29
153 155 156 154 151 149 146 147 147 128 143 154 147 154 157 189 196 196 185 140 145 132 140 143 149 149 162 164 173 163 182 187 143 156 104 91 147 101 69 40 36 26 31
164 162 157 156 152 149 150 148 143 144 145 154 162 160 176 179 179 183 185 141 150 148 147 149 159 162 154 171 188 174 163 145 149 358 178 95 142 50 49 45 22 22 22
158 152 151 148 151 152 148 147 142 147 154 155 153 165 157 133 99 86 97 90 117 156 163 160 160 167 156 169 147 180 154 184 163 96 232 108 2 68 68 35 17 19 19
128 133 136 139 135 131 147 145 148 146 144 155 166 148 154 157 167 129 92 91 70 56 43 193 164 153 162 166 172 175 168 191 124 131 197 146 155 98 69 100 40 23 16
117 119 123 117 118 130 138 123 106 129 135 132 147 152 160 163 164 151 151 136 103 63 51 40 87 81 137 159 179 200 174 116 109 105 338 150 33 76 6 101 81 37 10
118 122 120 115 119 134 134 132 130 122 127 117 112 121 141 152 147 161 127 128 120 101 83 86 89 89 88 68 18 176 171 172 167 121 70 15 99 80 187 241 323 112 3
115 122 110 114 132 140 145 146 141 134 140 134 125 126 133 129 124 131 136 142 136 138 127 113 109 101 90 75 51 0 169 215 121 161 112 164 157 196 201 179 183 356 335